Time,TemperatureF,DewpointF,PressureIn,WindDirection,WindDirectionDegrees,WindSpeedMPH,WindSpeedGustMPH,Humidity,HourlyPrecipIn,Conditions,Clouds,dailyrainin,SolarRadiationWatts/m^2,SoftwareType,DateUTC
2013-05-11 00:02:00,37.0,29.0,-100.00,West,270,4.0,6.0,74,0.00,,,0.05,0.000000,,2013-05-11 06:02:00,
2013-05-11 00:12:00,37.0,29.0,-100.00,West,270,4.0,6.0,74,0.00,,,0.05,0.000000,,2013-05-11 06:12:00,
2013-05-11 00:42:00,35.0,29.0,-100.00,West,260,4.0,6.0,79,0.00,,,0.05,0.000000,,2013-05-11 06:42:00,
2013-05-11 00:52:00,35.0,29.0,-100.00,West,260,4.0,6.0,79,0.00,,,0.05,0.000000,,2013-05-11 06:52:00,
2013-05-11 01:01:00,35.0,29.0,-100.00,West,260,4.0,6.0,79,0.00,,,0.05,0.000000,,2013-05-11 07:01:00,
2013-05-11 01:11:00,35.0,29.0,-100.00,West,260,4.0,6.0,79,0.00,,,0.05,0.000000,,2013-05-11 07:11:00,
2013-05-11 01:42:00,34.0,29.0,-100.00,West,270,4.0,7.0,81,0.00,,,-99.99,0.000000,,2013-05-11 07:42:00,
2013-05-11 01:52:00,34.0,29.0,-100.00,West,270,4.0,7.0,81,0.00,,,-99.99,0.000000,,2013-05-11 07:52:00,
2013-05-11 02:01:00,34.0,29.0,-100.00,West,270,4.0,7.0,81,0.00,,,-99.99,0.000000,,2013-05-11 08:01:00,
2013-05-11 02:12:00,34.0,29.0,-100.00,West,270,4.0,7.0,81,0.00,,,-99.99,0.000000,,2013-05-11 08:12:00,
2013-05-11 02:42:00,33.0,28.0,-100.00,West,267,5.0,7.0,83,0.00,,,0.05,0.000000,,2013-05-11 08:42:00,
2013-05-11 02:52:00,33.0,28.0,-100.00,West,267,5.0,7.0,83,0.00,,,0.05,0.000000,,2013-05-11 08:52:00,
2013-05-11 03:01:00,33.0,28.0,-100.00,West,267,5.0,7.0,83,0.00,,,0.05,0.000000,,2013-05-11 09:01:00,
2013-05-11 03:11:00,33.0,28.0,-100.00,West,267,5.0,7.0,83,0.00,,,0.05,0.000000,,2013-05-11 09:11:00,
2013-05-11 03:42:00,33.0,28.0,-100.00,West,271,4.0,7.0,82,0.00,,,-99.99,0.000000,,2013-05-11 09:42:00,
2013-05-11 03:52:00,33.0,28.0,-100.00,West,271,4.0,7.0,82,0.00,,,-99.99,0.000000,,2013-05-11 09:52:00,
2013-05-11 04:03:00,33.0,28.0,-100.00,West,271,4.0,7.0,82,0.00,,,-99.99,0.000000,,2013-05-11 10:03:00,
2013-05-11 04:12:00,33.0,28.0,-100.00,West,271,4.0,7.0,82,0.00,,,-99.99,0.000000,,2013-05-11 10:12:00,
2013-05-11 04:33:00,31.0,28.0,-100.00,West,266,4.0,7.0,87,0.00,,,0.05,0.000000,,2013-05-11 10:33:00,
2013-05-11 04:42:00,31.0,28.0,-100.00,West,266,4.0,7.0,87,0.00,,,0.05,0.000000,,2013-05-11 10:42:00,
2013-05-11 04:52:00,31.0,28.0,-100.00,West,266,4.0,7.0,87,0.00,,,0.05,0.000000,,2013-05-11 10:52:00,
2013-05-11 05:02:00,31.0,28.0,-100.00,West,266,4.0,7.0,87,0.00,,,0.05,0.000000,,2013-05-11 11:02:00,
2013-05-11 05:11:00,31.0,28.0,-100.00,West,266,4.0,7.0,87,0.00,,,0.05,0.000000,,2013-05-11 11:11:00,
2013-05-11 05:42:00,31.0,28.0,-100.00,WNW,286,2.0,7.0,88,0.00,,,-99.99,0.000000,,2013-05-11 11:42:00,
2013-05-11 05:52:00,31.0,28.0,-100.00,WNW,286,2.0,7.0,88,0.00,,,-99.99,0.000000,,2013-05-11 11:52:00,
2013-05-11 06:01:00,31.0,28.0,-100.00,WNW,286,2.0,7.0,88,0.00,,,-99.99,0.000000,,2013-05-11 12:01:00,
2013-05-11 06:11:00,31.0,28.0,-100.00,WNW,286,2.0,7.0,88,0.00,,,-99.99,0.000000,,2013-05-11 12:11:00,
2013-05-11 06:42:00,31.0,28.0,-100.00,West,262,4.0,8.0,87,0.00,,,-99.99,4.000000,,2013-05-11 12:42:00,
2013-05-11 06:52:00,31.0,28.0,-100.00,West,262,4.0,8.0,87,0.00,,,-99.99,4.000000,,2013-05-11 12:52:00,
2013-05-11 07:01:00,31.0,28.0,-100.00,West,262,4.0,8.0,87,0.00,,,-99.99,4.000000,,2013-05-11 13:01:00,
2013-05-11 07:11:00,31.0,28.0,-100.00,West,262,4.0,8.0,87,0.00,,,-99.99,4.000000,,2013-05-11 13:11:00,
2013-05-11 07:42:00,34.0,30.0,-100.00,West,265,3.0,5.0,86,0.00,,,0.05,51.000000,,2013-05-11 13:42:00,
2013-05-11 07:52:00,34.0,30.0,-100.00,West,265,3.0,5.0,86,0.00,,,0.05,51.000000,,2013-05-11 13:52:00,
2013-05-11 08:02:00,34.0,30.0,-100.00,West,265,3.0,5.0,86,0.00,,,0.05,51.000000,,2013-05-11 14:02:00,
2013-05-11 08:11:00,34.0,30.0,-100.00,West,265,3.0,5.0,86,0.00,,,0.05,51.000000,,2013-05-11 14:11:00,
2013-05-11 08:32:00,49.0,34.0,-100.00,SW,224,2.0,4.0,57,0.00,,,0.05,292.000000,,2013-05-11 14:32:00,
2013-05-11 09:11:00,49.0,34.0,-100.00,SW,224,2.0,4.0,57,0.00,,,0.05,292.000000,,2013-05-11 15:11:00,
2013-05-11 09:43:00,55.0,30.0,-100.00,ESE,103,6.0,9.0,38,0.00,,,0.05,587.000000,,2013-05-11 15:43:00,
2013-05-11 09:53:00,55.0,30.0,-100.00,ESE,103,6.0,9.0,38,0.00,,,0.05,587.000000,,2013-05-11 15:53:00,
2013-05-11 10:02:00,55.0,30.0,-100.00,ESE,103,6.0,9.0,38,0.00,,,0.05,587.000000,,2013-05-11 16:02:00,
2013-05-11 10:12:00,55.0,30.0,-100.00,ESE,103,6.0,9.0,38,0.00,,,0.05,587.000000,,2013-05-11 16:12:00,
2013-05-11 10:42:00,58.0,31.0,-100.00,ESE,120,8.0,13.0,35,0.00,,,0.05,830.000000,,2013-05-11 16:42:00,
2013-05-11 10:53:00,58.0,31.0,-100.00,ESE,120,8.0,13.0,35,0.00,,,0.05,830.000000,,2013-05-11 16:53:00,
2013-05-11 11:02:00,58.0,31.0,-100.00,ESE,120,8.0,13.0,35,0.00,,,0.05,830.000000,,2013-05-11 17:02:00,
2013-05-11 11:12:00,58.0,31.0,-100.00,ESE,120,8.0,13.0,35,0.00,,,0.05,830.000000,,2013-05-11 17:12:00,
2013-05-11 11:42:00,59.0,31.0,-100.00,ESE,118,7.0,14.0,34,0.00,,,0.05,867.000000,,2013-05-11 17:42:00,
2013-05-11 11:52:00,59.0,31.0,-100.00,ESE,118,7.0,14.0,34,0.00,,,0.05,867.000000,,2013-05-11 17:52:00,
2013-05-11 12:01:00,59.0,31.0,-100.00,ESE,118,7.0,14.0,34,0.00,,,0.05,867.000000,,2013-05-11 18:01:00,
2013-05-11 12:11:00,59.0,31.0,-100.00,ESE,118,7.0,14.0,34,0.00,,,0.05,867.000000,,2013-05-11 18:11:00,
2013-05-11 12:42:00,61.0,24.0,-100.00,SSE,162,5.0,22.0,24,0.00,,,0.05,705.000000,,2013-05-11 18:42:00,
2013-05-11 12:52:00,61.0,24.0,-100.00,SSE,162,5.0,22.0,24,0.00,,,0.05,705.000000,,2013-05-11 18:52:00,
2013-05-11 13:02:00,61.0,24.0,-100.00,SSE,162,5.0,22.0,24,0.00,,,0.05,705.000000,,2013-05-11 19:02:00,
2013-05-11 13:11:00,61.0,24.0,-100.00,SSE,162,5.0,22.0,24,0.00,,,0.05,705.000000,,2013-05-11 19:11:00,
2013-05-11 13:42:00,50.0,41.0,-100.00,WNW,298,4.0,29.0,72,0.00,,,0.04,381.000000,,2013-05-11 19:42:00,
2013-05-11 14:42:00,64.0,33.0,-100.00,WSW,242,6.0,10.0,31,0.00,,,0.00,875.000000,,2013-05-11 20:42:00,
2013-05-11 14:52:00,64.0,33.0,-100.00,WSW,242,6.0,10.0,31,0.00,,,0.00,875.000000,,2013-05-11 20:52:00,
2013-05-11 15:02:00,64.0,33.0,-100.00,WSW,242,6.0,10.0,31,0.00,,,0.00,875.000000,,2013-05-11 21:02:00,
2013-05-11 15:11:00,64.0,33.0,-100.00,WSW,242,6.0,10.0,31,0.00,,,0.00,875.000000,,2013-05-11 21:11:00,
2013-05-11 15:43:00,62.0,31.0,-100.00,West,276,7.0,22.0,31,0.00,,,0.00,771.000000,,2013-05-11 21:43:00,
2013-05-11 15:52:00,62.0,31.0,-100.00,West,276,7.0,22.0,31,0.00,,,0.00,771.000000,,2013-05-11 21:52:00,
2013-05-11 16:02:00,62.0,31.0,-100.00,West,276,7.0,22.0,31,0.00,,,0.00,771.000000,,2013-05-11 22:02:00,
2013-05-11 16:12:00,62.0,31.0,-100.00,West,276,7.0,22.0,31,0.00,,,0.00,771.000000,,2013-05-11 22:12:00,
2013-05-11 16:43:00,59.0,36.0,-100.00,SE,127,6.0,14.0,42,0.01,,,0.01,362.000000,,2013-05-11 22:43:00,
2013-05-11 16:52:00,59.0,36.0,-100.00,SE,127,6.0,14.0,42,0.01,,,0.01,362.000000,,2013-05-11 22:52:00,
2013-05-11 17:02:00,59.0,36.0,-100.00,SE,127,6.0,14.0,42,0.01,,,0.01,362.000000,,2013-05-11 23:02:00,
2013-05-11 17:11:00,59.0,36.0,-100.00,SE,127,6.0,14.0,42,0.01,,,0.01,362.000000,,2013-05-11 23:11:00,
2013-05-11 17:42:00,66.0,33.0,-100.00,SW,217,4.0,11.0,29,0.00,,,0.01,706.000000,,2013-05-11 23:42:00,
2013-05-11 17:52:00,66.0,33.0,-100.00,SW,217,4.0,11.0,29,0.00,,,0.01,706.000000,,2013-05-11 23:52:00,
2013-05-11 18:01:00,66.0,33.0,-100.00,SW,217,4.0,11.0,29,0.00,,,0.01,706.000000,,2013-05-12 00:01:00,
2013-05-11 18:11:00,66.0,33.0,-100.00,SW,217,4.0,11.0,29,0.00,,,0.01,706.000000,,2013-05-12 00:11:00,
2013-05-11 18:42:00,64.0,30.0,-100.00,WSW,250,2.0,10.0,28,0.00,,,0.01,388.000000,,2013-05-12 00:42:00,
2013-05-11 18:52:00,64.0,30.0,-100.00,WSW,250,2.0,10.0,28,0.00,,,0.01,388.000000,,2013-05-12 00:52:00,
2013-05-11 19:01:00,64.0,30.0,-100.00,WSW,250,2.0,10.0,28,0.00,,,0.01,388.000000,,2013-05-12 01:01:00,
2013-05-11 19:11:00,64.0,30.0,-100.00,WSW,250,2.0,10.0,28,0.00,,,0.01,388.000000,,2013-05-12 01:11:00,
2013-05-11 19:42:00,59.0,31.0,-100.00,WNW,292,6.0,10.0,34,0.00,,,0.01,289.000000,,2013-05-12 01:42:00,
2013-05-11 19:52:00,59.0,31.0,-100.00,WNW,292,6.0,10.0,34,0.00,,,0.01,289.000000,,2013-05-12 01:52:00,
2013-05-11 20:01:00,59.0,31.0,-100.00,WNW,292,6.0,10.0,34,0.00,,,0.01,289.000000,,2013-05-12 02:01:00,
2013-05-11 20:11:00,59.0,31.0,-100.00,WNW,292,6.0,10.0,34,0.00,,,0.01,289.000000,,2013-05-12 02:11:00,
2013-05-11 20:42:00,54.0,30.0,-100.00,WNW,293,6.0,10.0,39,0.00,,,0.01,44.000000,,2013-05-12 02:42:00,
2013-05-11 21:11:00,54.0,30.0,-100.00,WNW,293,6.0,10.0,39,0.00,,,0.01,44.000000,,2013-05-12 03:11:00,
2013-05-11 21:43:00,52.0,31.0,-100.00,West,264,3.0,9.0,45,0.00,,,0.01,3.000000,,2013-05-12 03:43:00,
2013-05-11 21:53:00,52.0,31.0,-100.00,West,264,3.0,9.0,45,0.00,,,0.01,3.000000,,2013-05-12 03:53:00,
2013-05-11 22:02:00,-999.0,-99.9,-100.00,West,264,3.0,9.0,45,0.00,,,0.01,3.000000,,2013-05-12 04:02:00,
2013-05-11 22:12:00,52.0,31.0,-100.00,West,264,3.0,9.0,45,0.00,,,0.01,3.000000,,2013-05-12 04:12:00,
2013-05-11 22:43:00,50.0,32.0,-100.00,West,275,3.0,5.0,49,0.00,,,0.01,0.000000,,2013-05-12 04:43:00,
2013-05-11 22:52:00,50.0,32.0,-100.00,West,275,3.0,5.0,49,0.00,,,0.01,0.000000,,2013-05-12 04:52:00,
2013-05-11 23:02:00,50.0,32.0,-100.00,West,275,3.0,5.0,49,0.00,,,0.01,0.000000,,2013-05-12 05:02:00,
2013-05-11 23:11:00,50.0,32.0,-100.00,West,275,3.0,5.0,49,0.00,,,0.01,0.000000,,2013-05-12 05:11:00,
2013-05-11 23:42:00,52.0,32.0,-100.00,WNW,290,3.0,6.0,46,0.00,,,0.01,0.000000,,2013-05-12 05:42:00,
2013-05-11 23:52:00,52.0,32.0,-100.00,WNW,290,3.0,6.0,46,0.00,,,0.01,0.000000,,2013-05-12 05:52:00,